Time,TemperatureF,DewpointF,PressureIn,WindDirection,WindDirectionDegrees,WindSpeedMPH,WindSpeedGustMPH,Humidity,HourlyPrecipIn,Conditions,Clouds,dailyrainin,SolarRadiationWatts/m^2,SoftwareType,DateUTC
2013-01-18 00:02:00,24.0,13.0,-100.00,WSW,257,2.0,4.0,63,0.00,,,0.08,1.000000,,2013-01-18 07:02:00,
2013-01-18 00:12:00,24.0,13.0,-100.00,WSW,257,2.0,4.0,63,0.00,,,0.08,1.000000,,2013-01-18 07:12:00,
2013-01-18 00:22:00,24.0,13.0,-100.00,WSW,257,2.0,4.0,63,0.00,,,0.08,1.000000,,2013-01-18 07:22:00,
2013-01-18 00:42:00,27.0,13.0,-100.00,WNW,283,3.0,6.0,54,0.00,,,0.08,1.000000,,2013-01-18 07:42:00,
2013-01-18 00:52:00,27.0,13.0,-100.00,WNW,283,3.0,6.0,54,0.00,,,0.08,1.000000,,2013-01-18 07:52:00,
2013-01-18 01:02:00,27.0,13.0,-100.00,WNW,283,3.0,6.0,54,0.00,,,0.08,1.000000,,2013-01-18 08:02:00,
2013-01-18 01:12:00,27.0,13.0,-100.00,WNW,283,3.0,6.0,54,0.00,,,0.08,1.000000,,2013-01-18 08:12:00,
2013-01-18 01:22:00,27.0,13.0,-100.00,WNW,283,3.0,6.0,54,0.00,,,0.08,1.000000,,2013-01-18 08:22:00,
2013-01-18 01:43:00,29.0,13.0,-100.00,West,273,2.0,6.0,50,0.00,,,0.08,0.000000,,2013-01-18 08:43:00,
2013-01-18 01:53:00,29.0,13.0,-100.00,West,273,2.0,6.0,50,0.00,,,0.08,0.000000,,2013-01-18 08:53:00,
2013-01-18 02:02:00,29.0,13.0,-100.00,West,273,2.0,6.0,50,0.00,,,0.08,0.000000,,2013-01-18 09:02:00,
2013-01-18 02:12:00,29.0,13.0,-100.00,West,273,2.0,6.0,50,0.00,,,0.08,0.000000,,2013-01-18 09:12:00,
2013-01-18 02:22:00,29.0,13.0,-100.00,West,273,2.0,6.0,50,0.00,,,0.08,0.000000,,2013-01-18 09:22:00,
2013-01-18 02:43:00,30.0,12.0,-100.00,WSW,248,3.0,7.0,46,0.00,,,0.08,1.000000,,2013-01-18 09:43:00,
2013-01-18 02:53:00,30.0,12.0,-100.00,WSW,248,3.0,7.0,46,0.00,,,0.08,1.000000,,2013-01-18 09:53:00,
2013-01-18 03:02:00,30.0,12.0,-100.00,WSW,248,3.0,7.0,46,0.00,,,0.08,1.000000,,2013-01-18 10:02:00,
2013-01-18 03:12:00,30.0,12.0,-100.00,WSW,248,3.0,7.0,46,0.00,,,0.08,1.000000,,2013-01-18 10:12:00,
2013-01-18 03:22:00,30.0,12.0,-100.00,WSW,248,3.0,7.0,46,0.00,,,0.08,1.000000,,2013-01-18 10:22:00,
2013-01-18 03:43:00,32.0,10.0,-100.00,NW,305,2.0,5.0,40,0.00,,,0.08,1.000000,,2013-01-18 10:43:00,
2013-01-18 03:53:00,32.0,10.0,-100.00,NW,305,2.0,5.0,40,0.00,,,0.08,1.000000,,2013-01-18 10:53:00,
2013-01-18 04:02:00,32.0,10.0,-100.00,NW,305,2.0,5.0,40,0.00,,,0.08,1.000000,,2013-01-18 11:02:00,
2013-01-18 04:12:00,32.0,10.0,-100.00,NW,305,2.0,5.0,40,0.00,,,0.08,1.000000,,2013-01-18 11:12:00,
2013-01-18 04:22:00,32.0,10.0,-100.00,NW,305,2.0,5.0,40,0.00,,,0.08,1.000000,,2013-01-18 11:22:00,
2013-01-18 04:43:00,33.0,8.0,-100.00,SW,236,3.0,8.0,35,0.00,,,0.08,1.000000,,2013-01-18 11:43:00,
2013-01-18 04:53:00,33.0,8.0,-100.00,SW,236,3.0,8.0,35,0.00,,,0.08,1.000000,,2013-01-18 11:53:00,
2013-01-18 05:03:00,33.0,8.0,-100.00,SW,236,3.0,8.0,35,0.00,,,0.08,1.000000,,2013-01-18 12:03:00,
2013-01-18 05:12:00,33.0,8.0,-100.00,SW,236,3.0,8.0,35,0.00,,,0.08,1.000000,,2013-01-18 12:12:00,
2013-01-18 05:22:00,33.0,8.0,-100.00,SW,236,3.0,8.0,35,0.00,,,0.08,1.000000,,2013-01-18 12:22:00,
2013-01-18 05:43:00,34.0,8.0,-100.00,SW,229,3.0,7.0,33,0.00,,,0.08,1.000000,,2013-01-18 12:43:00,
2013-01-18 05:53:00,34.0,8.0,-100.00,SW,229,3.0,7.0,33,0.00,,,0.08,1.000000,,2013-01-18 12:53:00,
2013-01-18 06:03:00,34.0,8.0,-100.00,SW,229,3.0,7.0,33,0.00,,,0.08,1.000000,,2013-01-18 13:03:00,
2013-01-18 06:12:00,34.0,8.0,-100.00,SW,229,3.0,7.0,33,0.00,,,0.08,1.000000,,2013-01-18 13:12:00,
2013-01-18 06:23:00,34.0,8.0,-100.00,SW,229,3.0,7.0,33,0.00,,,0.08,1.000000,,2013-01-18 13:23:00,
2013-01-18 06:43:00,30.0,8.0,-100.00,SSW,213,3.0,5.0,39,0.00,,,0.08,1.000000,,2013-01-18 13:43:00,
2013-01-18 06:53:00,30.0,8.0,-100.00,SSW,213,3.0,5.0,39,0.00,,,0.08,1.000000,,2013-01-18 13:53:00,
2013-01-18 07:03:00,30.0,8.0,-100.00,SSW,213,3.0,5.0,39,0.00,,,0.08,1.000000,,2013-01-18 14:03:00,
2013-01-18 07:12:00,30.0,8.0,-100.00,SSW,213,3.0,5.0,39,0.00,,,0.08,1.000000,,2013-01-18 14:12:00,
2013-01-18 07:22:00,30.0,8.0,-100.00,SSW,213,3.0,5.0,39,0.00,,,0.08,1.000000,,2013-01-18 14:22:00,
2013-01-18 07:43:00,27.0,9.0,-100.00,SW,232,0.0,5.0,46,0.00,,,0.08,1.000000,,2013-01-18 14:43:00,
2013-01-18 07:53:00,27.0,9.0,-100.00,SW,232,0.0,5.0,46,0.00,,,0.08,1.000000,,2013-01-18 14:53:00,
2013-01-18 08:03:00,27.0,9.0,-100.00,SW,232,0.0,5.0,46,0.00,,,0.08,1.000000,,2013-01-18 15:03:00,
2013-01-18 08:12:00,27.0,9.0,-100.00,SW,232,0.0,5.0,46,0.00,,,0.08,1.000000,,2013-01-18 15:12:00,
2013-01-18 08:23:00,27.0,9.0,-100.00,SW,232,0.0,5.0,46,0.00,,,0.08,1.000000,,2013-01-18 15:23:00,
2013-01-18 08:43:00,31.0,8.0,-100.00,NW,323,2.0,5.0,38,0.00,,,0.08,22.000000,,2013-01-18 15:43:00,
2013-01-18 08:54:00,31.0,8.0,-100.00,NW,323,2.0,5.0,38,0.00,,,0.08,22.000000,,2013-01-18 15:54:00,
2013-01-18 09:03:00,31.0,8.0,-100.00,NW,323,2.0,5.0,38,0.00,,,0.08,22.000000,,2013-01-18 16:03:00,
2013-01-18 09:12:00,31.0,8.0,-100.00,NW,323,2.0,5.0,38,0.00,,,0.08,22.000000,,2013-01-18 16:12:00,
2013-01-18 09:23:00,31.0,8.0,-100.00,NW,323,2.0,5.0,38,0.00,,,0.08,22.000000,,2013-01-18 16:23:00,
2013-01-18 09:43:00,41.0,13.0,-100.00,West,279,1.0,4.0,31,0.00,,,0.08,168.000000,,2013-01-18 16:43:00,
2013-01-18 09:53:00,41.0,13.0,-100.00,West,279,1.0,4.0,31,0.00,,,0.08,168.000000,,2013-01-18 16:53:00,
2013-01-18 10:03:00,41.0,13.0,-100.00,West,279,1.0,4.0,31,0.00,,,0.08,168.000000,,2013-01-18 17:03:00,
2013-01-18 10:13:00,41.0,13.0,-100.00,West,279,1.0,4.0,31,0.00,,,0.08,168.000000,,2013-01-18 17:13:00,
2013-01-18 10:23:00,41.0,13.0,-100.00,West,279,1.0,4.0,31,0.00,,,0.08,168.000000,,2013-01-18 17:23:00,
2013-01-18 10:43:00,45.0,10.0,-100.00,SW,220,4.0,8.0,24,0.01,,,0.09,295.000000,,2013-01-18 17:43:00,
2013-01-18 10:53:00,45.0,10.0,-100.00,SW,220,4.0,8.0,24,0.01,,,0.09,295.000000,,2013-01-18 17:53:00,
2013-01-18 11:03:00,45.0,10.0,-100.00,SW,220,4.0,8.0,24,0.01,,,0.09,295.000000,,2013-01-18 18:03:00,
2013-01-18 11:13:00,45.0,10.0,-100.00,SW,220,4.0,8.0,24,0.01,,,0.09,295.000000,,2013-01-18 18:13:00,
2013-01-18 11:23:00,45.0,10.0,-100.00,SW,220,4.0,8.0,24,0.01,,,0.09,295.000000,,2013-01-18 18:23:00,
2013-01-18 11:43:00,50.0,11.0,-100.00,SSW,210,4.0,16.0,20,0.01,,,0.08,400.000000,,2013-01-18 18:43:00,
2013-01-18 11:53:00,50.0,11.0,-100.00,SSW,210,4.0,16.0,20,0.01,,,0.08,400.000000,,2013-01-18 18:53:00,
2013-01-18 12:03:00,50.0,11.0,-100.00,SSW,210,4.0,16.0,20,0.01,,,0.08,400.000000,,2013-01-18 19:03:00,
2013-01-18 12:12:00,50.0,11.0,-100.00,SSW,210,4.0,16.0,20,0.01,,,0.08,400.000000,,2013-01-18 19:12:00,
2013-01-18 12:22:00,50.0,11.0,-100.00,SSW,210,4.0,16.0,20,0.01,,,0.08,400.000000,,2013-01-18 19:22:00,
2013-01-18 12:43:00,50.0,8.0,-100.00,SW,215,5.0,15.0,18,0.02,,,0.09,364.000000,,2013-01-18 19:43:00,
2013-01-18 12:53:00,50.0,8.0,-100.00,SW,215,5.0,15.0,18,0.02,,,0.09,364.000000,,2013-01-18 19:53:00,
2013-01-18 13:03:00,50.0,8.0,-100.00,SW,215,5.0,15.0,18,0.02,,,0.09,364.000000,,2013-01-18 20:03:00,
2013-01-18 13:12:00,50.0,8.0,-100.00,SW,215,5.0,15.0,18,0.02,,,0.09,364.000000,,2013-01-18 20:12:00,
2013-01-18 13:23:00,50.0,8.0,-100.00,SW,215,5.0,15.0,18,0.02,,,0.09,364.000000,,2013-01-18 20:23:00,
2013-01-18 13:43:00,50.0,11.0,-100.00,WSW,251,5.0,13.0,20,0.02,,,0.07,484.000000,,2013-01-18 20:43:00,
2013-01-18 13:53:00,50.0,11.0,-100.00,WSW,251,5.0,13.0,20,0.02,,,0.07,484.000000,,2013-01-18 20:53:00,
2013-01-18 14:03:00,50.0,11.0,-100.00,WSW,251,5.0,13.0,20,0.02,,,0.07,484.000000,,2013-01-18 21:03:00,
2013-01-18 14:13:00,50.0,11.0,-100.00,WSW,251,5.0,13.0,20,0.02,,,0.07,484.000000,,2013-01-18 21:13:00,
2013-01-18 14:22:00,50.0,11.0,-100.00,WSW,251,5.0,13.0,20,0.02,,,0.07,484.000000,,2013-01-18 21:22:00,
2013-01-18 14:43:00,47.0,10.0,-100.00,SW,224,4.0,13.0,22,0.00,,,0.07,396.000000,,2013-01-18 21:43:00,
2013-01-18 14:53:00,47.0,10.0,-100.00,SW,224,4.0,13.0,22,0.00,,,0.07,396.000000,,2013-01-18 21:53:00,
2013-01-18 15:03:00,47.0,10.0,-100.00,SW,224,4.0,13.0,22,0.00,,,0.07,396.000000,,2013-01-18 22:03:00,
2013-01-18 15:12:00,47.0,10.0,-100.00,SW,224,4.0,13.0,22,0.00,,,0.07,396.000000,,2013-01-18 22:12:00,
2013-01-18 15:22:00,47.0,10.0,-100.00,SW,224,4.0,13.0,22,0.00,,,0.07,396.000000,,2013-01-18 22:22:00,
2013-01-18 15:53:00,48.0,11.0,-100.00,SW,228,4.0,10.0,22,0.00,,,0.07,223.000000,,2013-01-18 22:53:00,
2013-01-18 16:03:00,48.0,11.0,-100.00,SW,228,4.0,10.0,22,0.00,,,0.07,223.000000,,2013-01-18 23:03:00,
2013-01-18 16:12:00,48.0,11.0,-100.00,SW,228,4.0,10.0,22,0.00,,,0.07,223.000000,,2013-01-18 23:12:00,
2013-01-18 16:22:00,48.0,11.0,-100.00,SW,228,4.0,10.0,22,0.00,,,0.07,223.000000,,2013-01-18 23:22:00,
2013-01-18 16:43:00,40.0,10.0,-100.00,SW,221,2.0,10.0,29,0.00,,,0.06,94.000000,,2013-01-18 23:43:00,
2013-01-18 16:53:00,40.0,10.0,-100.00,SW,221,2.0,10.0,29,0.00,,,0.06,94.000000,,2013-01-18 23:53:00,
2013-01-18 17:02:00,40.0,10.0,-100.00,SW,221,2.0,10.0,29,0.00,,,0.06,94.000000,,2013-01-19 00:02:00,
2013-01-18 17:12:00,40.0,10.0,-100.00,SW,221,2.0,10.0,29,0.00,,,0.06,94.000000,,2013-01-19 00:12:00,
2013-01-18 17:22:00,40.0,10.0,-100.00,SW,221,2.0,10.0,29,0.00,,,0.06,94.000000,,2013-01-19 00:22:00,
2013-01-18 17:43:00,36.0,11.0,-100.00,SSW,194,1.0,6.0,35,0.00,,,0.06,6.000000,,2013-01-19 00:43:00,
2013-01-18 17:53:00,36.0,11.0,-100.00,SSW,194,1.0,6.0,35,0.00,,,0.06,6.000000,,2013-01-19 00:53:00,
2013-01-18 18:02:00,36.0,11.0,-100.00,SSW,194,1.0,6.0,35,0.00,,,0.06,6.000000,,2013-01-19 01:02:00,
2013-01-18 18:12:00,36.0,11.0,-100.00,SSW,194,1.0,6.0,35,0.00,,,0.06,6.000000,,2013-01-19 01:12:00,
2013-01-18 18:22:00,36.0,11.0,-100.00,SSW,194,1.0,6.0,35,0.00,,,0.06,6.000000,,2013-01-19 01:22:00,
2013-01-18 18:43:00,33.0,14.0,-100.00,NE,48,2.0,4.0,45,0.00,,,0.06,1.000000,,2013-01-19 01:43:00,
2013-01-18 18:53:00,33.0,14.0,-100.00,NE,48,2.0,4.0,45,0.00,,,0.06,1.000000,,2013-01-19 01:53:00,
2013-01-18 19:02:00,33.0,14.0,-100.00,NE,48,2.0,4.0,45,0.00,,,0.06,1.000000,,2013-01-19 02:02:00,
2013-01-18 19:12:00,33.0,14.0,-100.00,NE,48,2.0,4.0,45,0.00,,,0.06,1.000000,,2013-01-19 02:12:00,
2013-01-18 19:22:00,33.0,14.0,-100.00,NE,48,2.0,4.0,45,0.00,,,0.06,1.000000,,2013-01-19 02:22:00,
2013-01-18 19:43:00,34.0,13.0,-100.00,NE,46,2.0,4.0,41,0.00,,,0.06,1.000000,,2013-01-19 02:43:00,
2013-01-18 19:53:00,34.0,13.0,-100.00,NE,46,2.0,4.0,41,0.00,,,0.06,1.000000,,2013-01-19 02:53:00,
2013-01-18 20:03:00,34.0,13.0,-100.00,NE,46,2.0,4.0,41,0.00,,,0.06,1.000000,,2013-01-19 03:03:00,
2013-01-18 20:12:00,34.0,13.0,-100.00,NE,46,2.0,4.0,41,0.00,,,0.06,1.000000,,2013-01-19 03:12:00,
2013-01-18 20:22:00,34.0,13.0,-100.00,NE,46,2.0,4.0,41,0.00,,,0.06,1.000000,,2013-01-19 03:22:00,
2013-01-18 20:44:00,32.0,15.0,-100.00,ENE,69,2.0,4.0,49,0.00,,,0.06,1.000000,,2013-01-19 03:44:00,
2013-01-18 20:53:00,32.0,15.0,-100.00,ENE,69,2.0,4.0,49,0.00,,,0.06,1.000000,,2013-01-19 03:53:00,
2013-01-18 21:02:00,32.0,15.0,-100.00,ENE,69,2.0,4.0,49,0.00,,,0.06,1.000000,,2013-01-19 04:02:00,
2013-01-18 21:12:00,32.0,15.0,-100.00,ENE,69,2.0,4.0,49,0.00,,,0.06,1.000000,,2013-01-19 04:12:00,
2013-01-18 21:22:00,32.0,15.0,-100.00,ENE,69,2.0,4.0,49,0.00,,,0.06,1.000000,,2013-01-19 04:22:00,
2013-01-18 21:43:00,36.0,11.0,-100.00,SW,214,4.0,11.0,35,0.00,,,0.06,1.000000,,2013-01-19 04:43:00,
2013-01-18 21:53:00,36.0,11.0,-100.00,SW,214,4.0,11.0,35,0.00,,,0.06,1.000000,,2013-01-19 04:53:00,
2013-01-18 22:03:00,36.0,11.0,-100.00,SW,214,4.0,11.0,35,0.00,,,0.06,1.000000,,2013-01-19 05:03:00,
2013-01-18 22:12:00,36.0,11.0,-100.00,SW,214,4.0,11.0,35,0.00,,,0.06,1.000000,,2013-01-19 05:12:00,
2013-01-18 22:22:00,36.0,11.0,-100.00,SW,214,4.0,11.0,35,0.00,,,0.06,1.000000,,2013-01-19 05:22:00,
2013-01-18 22:43:00,36.0,10.0,-100.00,WSW,241,3.0,11.0,34,0.00,,,0.06,1.000000,,2013-01-19 05:43:00,
2013-01-18 22:53:00,36.0,10.0,-100.00,WSW,241,3.0,11.0,34,0.00,,,0.06,1.000000,,2013-01-19 05:53:00,
2013-01-18 23:02:00,36.0,10.0,-100.00,WSW,241,3.0,11.0,34,0.00,,,0.06,1.000000,,2013-01-19 06:02:00,
2013-01-18 23:12:00,36.0,10.0,-100.00,WSW,241,3.0,11.0,34,0.00,,,0.06,1.000000,,2013-01-19 06:12:00,
2013-01-18 23:22:00,36.0,10.0,-100.00,WSW,241,3.0,11.0,34,0.00,,,0.06,1.000000,,2013-01-19 06:22:00,
2013-01-18 23:43:00,34.0,11.0,-100.00,SW,218,3.0,11.0,38,0.00,,,0.06,1.000000,,2013-01-19 06:43:00,
2013-01-18 23:53:00,34.0,11.0,-100.00,SW,218,3.0,11.0,38,0.00,,,0.06,1.000000,,2013-01-19 06:53:00,